Hourly Data Report for June 22, 2021

TORONTO CITY
ONTARIO
Current Station Operator: ECCC - MSC

43°40'00.000" N
79°24'00.000" W
112.50 m
6158355
71508
XTO

Download Data

Hourly Data (June 2021)
Hourly Data Report for June 22, 2021
TIME
LST
Temp Definition
°C
Dew Point Definition
°C
Rel Hum Definition
%
Precip. Amount Definition
mm

Wind Dir Definition
10's deg

Wind Spd Definition
km/h
Visibility Definition
km
Stn Press Definition
kPa
Hmdx Definition


Wind Chill Definition


Weather Definition


00:00 12.8 7.5 70 0.0       99.41     LegendNANA
01:00 12.7 7.5 70 0.0       99.45     LegendNANA
02:00 12.4 7.3 71 0.0       99.43     LegendNANA
03:00 12.3 7.5 72 0.0       99.49     LegendNANA
04:00 11.9 7.4 74 0.0       99.57     LegendNANA
05:00 11.2 7.5 78 0.0       99.61     LegendNANA
06:00 12.3 7.3 72 0.0       99.66     LegendNANA
07:00 13.2 7.2 67 0.0       99.74     LegendNANA
08:00 13.3 6.4 63 0.0       99.83     LegendNANA
09:00 13.7 4.8 55 0.0       99.89     LegendNANA
10:00 14.1 4.7 53 0.0       99.92     LegendNANA
11:00 15.3 3.1 44 0.0       99.92     LegendNANA
12:00 17.4 4.6 43 0.0       99.91     LegendNANA
13:00 17.2 2.7 38 0.0       99.89     LegendNANA
14:00 18.6 1.9 33 0.0       99.88     LegendNANA
15:00 18.5 4.1 38 0.0       99.84     LegendNANA
16:00 19.7 3.0 33 0.0       99.86     LegendNANA
17:00 18.4 2.6 35 0.0       99.88     LegendNANA
18:00 18.2 2.4 35 0.0       99.93     LegendNANA
19:00 17.8 2.4 36 0.0       99.99     LegendNANA
20:00 16.8 1.4 35 0.0       100.07     LegendNANA
21:00 16.1 2.4 40 0.0       100.14     LegendNANA
22:00 14.8 3.3 46 0.0       100.20     LegendNANA
23:00 13.4 4.7 56 0.0       100.24     LegendNANA

Notes on Data Quality.

Legend

  • E = Estimated
  • M = Missing
  • NA = Not Available*
  • [empty] = Indicates an unobserved value
Date modified: